Regional Weather Roundup
Issued by NWS Wilmington, NC

Home | Current Version | Previous Version | Text Only | Print | Product List | Glossary On
Versions: 1 2 3 4 5 6 7 8 9 10 11 12 13 14 15 16 17 18 19 20 21 22 23 24 25 26 27 28 29 30 31 32 33 34 35 36 37 38 39 40 41 42 43 44 45 46 47 48 49 50
000
ASUS42 KILM 280310
RWRILM
RWRILM
REGIONAL HOURLY WEATHER ROUNDUP
NATIONAL WEATHER SERVICE WILMINGTON NC
1000 PM EST THU NOV 27 2014

NOTE: "FAIR" INDICATES FEW OR NO CLOUDS BELOW 12,000 FEET WITH NO
SIGNIFICANT WEATHER AND/OR OBSTRUCTIONS TO VISIBILITY.

...............WFO WILMINGTON COUNTY WARNING AREA...............

......COASTAL NC AND SC COUNTIES......

CITY           SKY/WX    TMP DP  RH WIND       PRES   REMARKS
WILMINGTON     CLEAR     41  36  82 N8        30.22R
SOUTHPORT      CLEAR     40  37  89 NW3       30.24R
N MYRTLE BEACH CLEAR     41  37  86 VRB3      30.24R
MYRTLE BEACH   CLEAR     43  36  75 NW9       30.24R

......INLAND NC AND SC COUNTIES.......

CITY           SKY/WX    TMP DP  RH WIND       PRES   REMARKS
LUMBERTON      CLEAR     42  28  57 N8        30.24S
ELIZABETHTOWN  PTCLDY    41  32  69 CALM      30.24R
WHITEVILLE     PTCLDY    42  33  73 CALM      30.24R
FLORENCE       CLEAR     42  31  64 N8        30.26R
DARLINGTON     CLEAR     37  28  70 NW3       30.28R

....................REST OF NORTH CAROLINA......................

.........EASTERN NC.........

CITY           SKY/WX    TMP DP  RH WIND       PRES   REMARKS
CAPE HATTERAS  MOCLDY    44  39  82 N8G21     30.14R
JACKSONVILLE   CLEAR     39  34  81 NW6       30.22R WCI  35
MOREHEAD CITY  CLEAR     43  39  86 NW12      30.19R
KENANSVILLE    CLEAR     40  32  72 NW6       30.23S
NEW BERN       CLEAR     43  34  70 NW8       30.20S
ELIZABETH CITY CLOUDY    43  36  76 W8        30.18R

.........CENTRAL NC.........

CITY           SKY/WX    TMP DP  RH WIND       PRES   REMARKS
RALEIGH DURHAM PTCLDY    39  25  57 VRB5      30.24R
ROCKY MOUNT    CLEAR     38  27  64 NW8       30.23R WCI  32
ROANOKE RAPIDS NOT AVBL
FAYETTEVILLE   CLEAR     41  27  57 NW9       30.24R
HOFFMAN        CLEAR     32  30  93 W2        30.26R

.........WESTERN NC.........

CITY           SKY/WX    TMP DP  RH WIND       PRES   REMARKS
CHARLOTTE      CLEAR     37  23  56 NW9       30.27S WCI  30
GREENSBORO     PTCLDY    37  23  56 NW10      30.23S WCI  30
HICKORY        NOT AVBL
BOONE          NOT AVBL
ASHEVILLE      NOT AVBL

.....................REST OF SOUTH CAROLINA.....................

.........EASTERN SC.........

CITY           SKY/WX    TMP DP  RH WIND       PRES   REMARKS
CHARLESTON     CLEAR     43  33  68 W7        30.27R
BEAUFORT MCAS  CLEAR     43  33  68 W8        30.30R
HILTON HEAD    CLEAR     46  32  57 W6        30.31R

.........CENTRAL SC.........

CITY           SKY/WX    TMP DP  RH WIND       PRES   REMARKS
COLUMBIA       CLEAR     43  27  53 NW3       30.29R
ORANGEBURG     CLEAR     42  30  62 NW5       30.30R
SUMTER SHAW    CLEAR     41  29  63 NW8       30.27R

.........WESTERN SC.........

CITY           SKY/WX    TMP DP  RH WIND       PRES   REMARKS
GREENVILLE     NOT AVBL
ROCK HILL      CLEAR     37  24  59 N7        30.28R WCI  32
ANDERSON       CLEAR     38  26  62 W12       30.30R WCI  30
CLEMSON        NOT AVBL
GREENWOOD      CLEAR     34  25  69 W3        30.32R


...................COASTAL AND OFFSHORE REPORTS..................

................LOCAL PIERS AND NC RESERVE................


STATION/POSITION TIME  SKY/WX   TEMP    WIND        PRES    VSBY
                                AIR SEA DIR/SP/G
                 (UTC)          (F)     (DEG/KT/KT) (MB)    (MI)
JOHNY MRCER PIER 0300            44 60  330/  6/  9 1022.3F
NC RESRV MASNBRO 0200            43     260/  1     1023.0R
OCEAN CREST PIER 0300            42 57  290/  5/  6 1022.6R
SPRINGMAID  PIER 0300            42 56  310/  4/  5 1024.0S


................COASTAL AND OFFSHORE BUOYS................


STATION/POSITION TIME  SKY/WX   TEMP    WIND        PRES    VSBY
                                AIR SEA DIR/SP/G
                 (UTC)          (F)     (DEG/KT/KT) (MB)    (MI)
DIMNDSHOAL 41025 0300            49     320/ 23/ 29 1019.3R
WVE H/P(F/S)=  7/ 7 WND WVE H/P(F/S)=  7/ 7 SWL H/P/D(F/S/D)=  2/150/14

CAPE LOOKOUT     0200            46     310/ 15/ 17 1021.4R
ONSLOW BAY 41036 0300            51 66  340/ 21/ 27 1022.1R
WVE H/P(F/S)=  6/ 5 WND WVE H/P(F/S)=  7/ 5 SWL H/P/D(F/S/D)=  2/360/13

5 WRITEBCH 41038 0200            45 59  330/ 16/ 19 1022.6R
MASONBORO  41110 0300               59                N/A
WVE H/P(F/S)=  2/ 9 WND WVE H/P(F/S)=  2/ 9

WILM HARBR 41108 0300               61                N/A
WVE H/P(F/S)=  4/ 7 WND WVE H/P(F/S)=  3/ 7

27WRITEBCH 41037 0200            49 65  350/ 23/ 27 1022.1S
FRYING PAN 41013 0300            51 70  340/ 19/ 25 1023.0R
WVE H/P(F/S)=  8/ 6 WND WVE H/P(F/S)=  8/ 6 SWL H/P/D(F/S/D)=  2/ 60/14

SUNST NRSH 41024 0200            47     340/  8/ 10 1020.4R
CAPRS NRSH 41029 0200            51     290/ 16/ 17   N/A
EDISTO     41004 0300            56 72  320/ 19/ 27 1023.1R
WVE H/P(F/S)=  6/ 5 WND WVE H/P(F/S)=  5/ 5 SWL H/P/D(F/S/D)=  2/ 9



..........OFFSHORE BUOYS BEYOND 100 NM OFFSHORE...........
.....IN A TRIANGLE---HAT TO BERMUDA TO BAHAMAS TO HAT.....


STATION/POSITION TIME  SKY/WX   TEMP    WIND        PRES    VSBY
                                AIR SEA DIR/SP/G
                 (UTC)          (F)     (DEG/KT/KT) (MB)    (MI)
150E HAT   41001 NOT AVBL
W BERMUDA  41048 0245            70 74  220/ 12/ 16 1013.8F
WVE H/P(F/S)=  8/ 9 WND WVE H/P(F/S)=  3/ 6 SWL H/P/D(F/S/D)=  7/290/ 9

ATLANTIC S 41049 0231            77 78  140/  4/  4 1014.9F
WVE H/P(F/S)=  6/ 9 WND WVE H/P(F/S)=  2/ 4 SWL H/P/D(F/S/D)=  7/ 90/ 9

E BAHAMAS  41046 0225            79 81  130/  2/  4 1015.6F
WVE H/P(F/S)=  7/ 9 WND WVE H/P(F/S)=  2/ 3 SWL H/P/D(F/S/D)=  7/100/ 9

NE BAHAMAS 41047 0243            74 78  330/ 17/ 19 1016.6F
WVE H/P(F/S)=  9/ 9 WND WVE H/P(F/S)=  5/ 5 SWL H/P/D(F/S/D)=  8/320/ 9

120E CANVRL41010 0300            65 77  320/ 21/ 27 1022.0S
WVE H/P(F/S)=  9/ 8 WND WVE H/P(F/S)=  8/ 8 SWL H/P/D(F/S/D)=  2/14


END



USA.gov is the U.S. government's official web portal to all federal, state and local government web resources and services.